Kalamazoo, MI

5:11 PM EST on February 21, 2018 (GMT -0500)
Kalamazoo-Battle Creek International

Weather History for KAZO - August, 2014

Change the Weather History Date:

Thursday, August 14, 2014

  Actual Average Record
Temperature  
Mean Temperature 62 °F 71 °F  
Max Temperature 73 °F 81 °F 96 °F (1988)
Min Temperature 50 °F 61 °F 42 °F (1964)
Degree Days  
Heating Degree Days 3 0  
Month to date heating degree days 4 0  
Since 1 June heating degree days 46 53  
Since 1 July heating degree days 27 5  
Cooling Degree Days 0 6  
Month to date cooling degree days 66 96  
Year to date cooling degree days 411 522  
Since 1 June cooling degree days 357 481  
Growing Degree Days 13 (Base 50)    
Moisture  
Dew Point 45 °F    
Average Humidity 58    
Maximum Humidity 83    
Minimum Humidity 33    
Precipitation  
Precipitation 0.00 in 0.14 in 1.01 in (2015)
Month to date precipitation 0.26 1.57  
Year to date precipitation 15.50 21.29  
Sea Level Pressure  
Sea Level Pressure 30.06 in    
Wind  
Wind Speed 8 mph (NNW)    
Max Wind Speed 18 mph    
Max Gust Speed 25 mph    
Visibility 10 miles    
Events      
T = Trace of Precipitation, MM = Missing Value Source: NWS Daily Summary

Daily Weather History Graph

Daily Weather History Graph

Search for Another Location

Airport or City:

Trip Planner

Search our weather history database for the weather conditions in past years. The results will help you decide how hot, cold, wet, or windy it might be!

Date:

Astronomy

Aug. 14, 2014 Rise Set
Actual Time 6:48 AM EDT 8:44 PM EDT
Civil Twilight 6:18 AM EDT 9:14 PM EDT
Nautical Twilight 5:41 AM EDT 9:51 PM EDT
Astronomical Twilight 5:00 AM EDT 10:31 PM EDT
Moon 11:00 PM EDT (8/14) 11:30 AM EDT (8/14)
Length of Visible Light 14h 56m
Length of Day
13h 55m
Waning Gibbous, 79% of the Moon is Illuminated
Aug 14
Waning Gibbous
Aug 17
Last Quarter
Aug 25
New
Sep 2
First Quarter
Sep 8
Full

Hourly Weather History & Observations

Time (EDT) Temp. Dew Point Humidity Pressure Visibility Wind Dir Wind Speed Gust Speed Precip Events Conditions
12:53 AM 60.1 °F 50.0 °F 69% 30.02 in 10.0 mi North 4.6 mph - N/A   Clear
1:53 AM 57.0 °F 50.0 °F 77% 30.04 in 10.0 mi North 4.6 mph - N/A   Partly Cloudy
2:53 AM 55.9 °F 48.9 °F 77% 30.04 in 10.0 mi North 5.8 mph - N/A   Clear
3:53 AM 55.9 °F 48.9 °F 77% 30.04 in 10.0 mi NNE 3.5 mph - N/A   Clear
4:53 AM 55.0 °F 48.9 °F 80% 30.05 in 10.0 mi NNE 4.6 mph - N/A   Mostly Cloudy
5:53 AM 53.1 °F 48.0 °F 83% 30.07 in 10.0 mi North 4.6 mph - N/A   Partly Cloudy
6:53 AM 53.1 °F 48.9 °F 86% 30.08 in 10.0 mi North 4.6 mph - N/A   Mostly Cloudy
7:53 AM 55.0 °F 48.9 °F 80% 30.10 in 10.0 mi North 6.9 mph - N/A   Partly Cloudy
8:53 AM 57.0 °F 46.9 °F 69% 30.11 in 10.0 mi North 4.6 mph - N/A   Scattered Clouds
9:53 AM 62.1 °F 45.0 °F 53% 30.11 in 10.0 mi NNE 5.8 mph - N/A   Clear
10:53 AM 64.9 °F 43.0 °F 45% 30.10 in 10.0 mi North 13.8 mph - N/A   Clear
11:53 AM 66.9 °F 41.0 °F 39% 30.10 in 10.0 mi NNW 11.5 mph 19.6 mph N/A   Clear
12:53 PM 69.1 °F 42.1 °F 38% 30.09 in 10.0 mi North 6.9 mph 16.1 mph N/A   Clear
1:53 PM 70.0 °F 39.9 °F 33% 30.08 in 10.0 mi WNW 5.8 mph - N/A   Clear
2:53 PM 72.0 °F 41.0 °F 33% 30.07 in 10.0 mi NW 13.8 mph 17.3 mph N/A   Partly Cloudy
3:53 PM 73.0 °F 44.1 °F 35% 30.05 in 10.0 mi WNW 16.1 mph 20.7 mph N/A   Clear
4:28 PM 72.0 °F 45.0 °F 38% 30.05 in 10.0 mi NNW 11.5 mph 23.0 mph N/A   Clear
4:53 PM 71.1 °F 44.1 °F 38% 30.05 in 10.0 mi WNW 16.1 mph 19.6 mph N/A   Clear
5:53 PM 69.1 °F 45.0 °F 42% 30.05 in 10.0 mi NW 17.3 mph - N/A   Clear
6:53 PM 66.9 °F 44.1 °F 44% 30.05 in 10.0 mi NNW 11.5 mph - N/A   Clear
7:53 PM 64.0 °F 43.0 °F 46% 30.05 in 10.0 mi NNW 11.5 mph - N/A   Clear
8:53 PM 60.1 °F 42.1 °F 51% 30.04 in 10.0 mi NW 5.8 mph - N/A   Clear
9:53 PM 55.9 °F 42.1 °F 60% 30.06 in 10.0 mi WNW 5.8 mph - N/A   Clear
10:53 PM 53.1 °F 42.1 °F 66% 30.06 in 10.0 mi Calm Calm - N/A   Clear
11:53 PM 51.1 °F 42.1 °F 71% 30.06 in 10.0 mi WSW 3.5 mph - N/A   Clear